Location: De Forest
(43.2480°N, 89.3440°W)
Time: 08:10:25
(UTC-05:00)

ISS - Visible Passes

Search period start: 17 October 2019 00:00
Search period end: 27 October 2019 00:00
Orbit: 411 x 421 km, 51.6° (Epoch: 17 October)

Date Brightness Start Highest point End Pass type
(mag) Time Alt. Az. Time Alt. Az. Time Alt. Az.
23 Oct -1.8 06:46:51 10° SSW 06:49:51 30° SE 06:52:51 10° ENE visible
24 Oct -1.0 05:59:02 10° S 06:01:26 18° SE 06:03:50 10° E visible
25 Oct -0.6 05:12:12 10° SE 05:13:04 11° SE 05:13:56 10° ESE visible
25 Oct -3.7 06:45:55 10° SW 06:49:17 82° SE 06:52:39 10° ENE visible
26 Oct -2.9 05:58:34 18° SSW 06:00:44 48° SE 06:04:00 10° ENE visible
